Theta_e
316 308 307 307 298 295 292 295 298 296 296 304 307 306 307 307 308 302 325 328 332 338 340 340 343 346 345 345 345 345 344 343 342 341 341 339 338 337 334 333 331 330 330 329 328 326 325 324 324
308 310 306 300 293 290 291 295 296 298 304 305 302 303 304 303 312 319 322 328 332 338 340 341 341 344 344 344 343 342 341 340 339 338 336 334 333 331 330 328 327 326 326 326 325 323 322 322 322
304 306 299 295 290 289 290 293 295 297 306 299 300 303 305 307 315 318 324 329 332 336 339 339 341 343 343 342 341 340 339 337 336 333 332 330 329 327 326 325 324 324 324 323 323 322 321 320 321
301 301 297 291 288 292 292 292 296 296 297 302 302 301 305 313 315 321 328 328 328 331 335 338 340 341 340 339 338 337 335 333 332 330 328 327 325 324 323 323 322 321 321 321 321 321 320 319 318
297 295 290 287 287 290 292 293 296 294 295 297 298 297 302 312 319 324 325 326 325 326 330 332 336 336 337 335 335 333 331 329 328 326 324 323 322 321 320 319 319 319 319 319 319 317 317 316 316
294 291 286 284 285 289 290 289 292 293 294 295 298 298 301 315 319 322 324 321 322 321 322 324 325 330 332 331 330 329 327 325 323 321 320 319 318 317 317 317 317 318 318 317 316 315 314 314 313
290 288 283 283 284 286 289 291 291 291 292 293 299 296 301 313 318 322 321 319 319 318 317 317 318 320 323 325 326 324 322 320 319 316 315 313 313 312 313 314 315 315 315 315 314 312 311 311 310
292 288 282 283 283 285 289 290 291 292 292 294 295 294 296 308 318 319 318 316 316 316 315 313 313 313 313 314 319 319 318 315 313 311 310 308 307 307 309 309 311 311 311 311 311 309 308 307 307
291 285 282 282 283 285 289 288 290 291 293 296 302 298 303 312 317 314 312 312 312 313 312 311 311 310 309 310 310 313 313 311 308 306 305 301 298 297 299 306 307 307 307 308 308 308 306 303 302
288 283 284 285 284 284 288 288 287 289 290 292 299 304 309 311 313 311 309 307 304 304 306 308 308 307 305 306 306 304 303 302 300 300 299 300 299 300 298 299 302 303 302 303 304 304 301 296 291
287 284 286 286 287 287 287 287 287 286 286 288 294 302 306 310 309 306 305 304 304 303 304 305 305 303 302 303 303 301 300 298 298 300 300 299 297 296 294 292 292 292 296 292 293 292 291 291 291
284 288 288 289 289 287 286 287 286 285 288 290 293 305 304 307 307 305 304 304 304 303 303 302 301 299 298 298 296 296 296 295 297 298 297 296 295 292 291 291 291 290 291 290 290 290 290 290 291
285 286 288 288 289 287 288 284 284 285 287 298 304 304 303 304 304 304 305 304 303 302 302 301 299 297 297 297 297 295 295 294 294 295 296 293 291 291 291 290 290 289 289 289 289 289 289 289 290
286 287 286 288 288 288 286 283 285 284 289 299 302 302 302 302 302 301 302 302 300 301 300 301 299 296 297 295 295 294 294 293 293 292 293 293 292 290 290 290 289 289 289 289 289 288 288 288 289
286 283 285 287 288 287 286 283 282 284 289 294 297 299 300 300 301 302 302 303 301 299 299 298 297 296 295 295 294 293 293 294 292 292 292 292 292 290 289 289 289 289 288 289 288 288 288 288 289
284 282 279 285 287 287 285 280 284 285 284 285 288 288 291 290 291 291 293 293 303 300 297 297 299 296 295 294 293 293 293 292 292 292 291 292 292 290 289 289 288 289 289 288 287 287 287 287 287
284 277 280 282 286 285 284 282 286 286 285 283 284 285 288 289 290 292 294 294 294 301 298 296 296 295 295 294 293 292 292 292 291 291 291 291 292 292 289 289 288 289 288 287 287 287 286 286 287
279 280 282 282 284 284 281 283 285 284 284 284 284 285 286 288 289 292 294 295 294 295 297 296 296 296 295 294 292 292 291 291 291 291 291 292 292 292 290 289 288 288 287 286 286 286 287 286 286
282 281 281 283 284 281 280 280 283 284 283 283 283 285 286 287 289 292 293 293 293 295 294 295 295 294 293 291 291 291 290 291 291 291 293 293 292 292 290 289 288 287 286 286 286 286 285 285 286
283 281 281 283 284 281 279 280 283 283 283 283 284 284 285 286 288 290 292 291 291 292 293 294 294 294 293 292 291 291 290 291 291 292 292 293 293 292 291 289 289 287 286 286 286 286 285 284 285
281 281 279 279 281 279 276 278 279 281 282 283 283 283 284 285 287 288 290 289 289 289 290 293 294 293 293 293 292 291 291 290 290 290 291 291 292 292 292 291 289 288 287 286 285 285 285 283 284
281 280 280 279 274 271 276 269 276 278 280 281 282 282 283 283 286 287 287 287 287 288 290 292 293 293 293 293 291 290 289 289 289 289 290 290 291 291 291 291 289 288 287 286 285 287 285 284 283
279 280 279 277 269 269 270 265 273 276 276 278 280 281 282 283 283 284 285 286 286 287 288 290 292 292 292 292 291 290 289 289 289 289 288 288 289 289 290 290 289 288 287 286 286 285 285 285 284
280 277 276 274 267 262 262 265 271 273 277 278 279 280 282 282 283 282 284 285 285 285 286 287 288 287 289 289 289 289 288 288 287 287 286 286 287 288 288 289 288 288 288 287 286 286 285 285 284
278 270 263 264 262 266 257 266 275 278 279 279 280 280 281 282 282 282 282 283 283 283 284 286 285 285 286 286 286 286 285 285 285 285 284 284 285 285 286 287 287 287 287 288 287 286 285 285 284
276 269 265 259 262 265 259 265 274 278 278 279 279 280 281 281 282 282 282 282 281 281 281 282 283 283 283 283 283 284 284 284 284 283 283 283 283 284 285 285 285 285 286 287 287 285 285 284 284
274 267 272 260 253 259 265 270 276 277 275 277 278 279 279 280 281 282 282 281 280 279 280 281 281 281 282 281 281 281 282 282 281 281 281 281 282 284 284 283 283 284 284 285 285 284 284 284 284
275 276 267 264 260 257 262 257 271 271 271 273 277 277 278 280 280 281 281 280 280 279 280 280 281 281 281 281 281 281 281 281 281 281 281 281 281 282 282 282 282 282 283 283 283 283 283 283 284
270 268 268 267 267 261 259 266 270 269 265 269 271 277 274 276 279 280 280 280 281 281 281 280 280 281 281 281 281 281 281 281 281 281 281 281 281 281 281 282 282 282 282 282 282 282 282 282 282
275 271 273 267 263 263 265 266 271 266 262 261 271 273 275 275 278 277 280 280 280 281 280 279 281 280 281 280 281 281 281 281 280 280 281 281 281 281 281 281 281 281 282 281 281 281 281 281 282
Wind_Speed
9 7 2 5 4 5 2 4 1 1 1 3 2 3 6 4 2 2 1 5 6 0 4 5 8 14 16 15 15 16 17 18 17 15 16 16 15 15 13 14 15 14 14 14 14 15 15 16 15
6 6 5 3 5 2 4 3 1 2 4 5 4 2 6 3 1 1 2 7 5 4 5 5 10 14 16 17 17 15 16 16 15 13 14 14 14 14 14 15 15 14 14 14 14 14 15 16 16
5 3 4 4 2 5 4 3 2 2 5 2 4 5 2 1 0 2 1 4 5 7 7 8 12 16 16 16 16 14 16 17 15 13 13 14 15 15 15 15 15 15 15 15 14 14 15 16 16
4 5 5 4 4 5 3 3 2 2 2 5 3 6 2 2 3 1 4 5 10 8 10 10 14 16 16 13 15 15 16 16 15 15 14 14 15 14 14 15 14 15 14 15 15 16 15 15 15
4 3 3 1 3 4 3 2 4 1 2 3 3 4 2 3 3 4 6 7 9 9 9 10 16 16 15 13 15 15 15 15 15 14 14 15 15 13 13 13 13 13 13 14 14 14 15 15 15
5 3 3 3 3 4 4 1 1 2 1 1 5 4 1 1 3 4 6 8 8 9 9 9 13 13 12 13 13 14 14 14 14 14 14 14 14 13 13 12 13 13 13 13 14 14 14 14 14
6 4 3 2 3 2 0 6 2 3 2 4 5 4 1 2 2 5 7 7 8 8 8 7 8 11 14 13 12 12 14 13 13 13 15 14 13 13 13 13 14 13 13 13 13 14 14 14 14
5 5 2 2 2 2 4 3 1 3 2 2 1 2 3 5 6 7 7 6 6 6 6 5 5 6 7 6 13 12 13 13 12 12 13 13 12 12 13 12 14 13 13 13 13 13 14 14 13
3 5 1 2 4 2 6 3 4 2 4 3 3 1 4 7 9 6 5 3 4 4 4 4 5 5 6 6 7 10 12 10 11 9 11 8 4 6 8 11 13 13 13 13 13 13 14 13 12
5 4 4 1 0 2 5 3 4 4 3 2 2 4 5 8 7 7 4 4 3 2 2 3 4 4 4 5 5 5 6 4 5 4 5 4 5 5 6 8 11 12 12 12 12 13 12 9 4
1 3 1 1 2 2 5 3 5 2 2 1 3 4 5 6 5 6 4 4 4 2 1 2 3 4 4 4 3 2 2 3 3 5 4 4 4 3 3 3 3 4 8 4 6 6 4 6 4
3 1 1 2 4 3 4 6 5 1 2 4 7 8 6 7 7 6 6 5 5 4 4 3 3 3 4 3 3 3 2 2 3 3 5 3 2 4 4 3 4 4 3 5 4 3 5 6 6
3 1 3 3 6 3 4 3 4 4 3 4 6 7 7 6 5 3 4 3 4 5 5 5 4 3 3 3 2 2 2 3 2 3 3 3 3 3 2 3 3 4 4 4 4 4 4 5 6
0 2 2 4 4 2 3 2 3 2 3 5 6 6 5 6 5 2 4 5 6 5 7 5 5 4 4 3 3 2 2 2 2 2 2 3 3 2 3 3 3 4 3 3 4 4 4 4 4
2 2 3 6 6 3 2 1 2 6 3 3 2 3 3 3 1 5 3 6 7 6 5 7 6 5 5 4 3 2 2 3 2 1 2 3 3 3 3 3 3 3 3 5 4 4 3 4 4
5 5 4 4 8 3 4 7 1 6 3 3 2 0 0 2 3 4 4 5 6 6 8 6 5 6 5 4 3 2 3 2 2 1 1 2 3 3 3 3 3 3 4 3 4 4 4 4 4
7 0 1 5 4 4 2 5 3 5 2 5 1 2 3 2 2 5 6 6 6 7 7 8 7 7 6 4 3 3 3 2 1 1 0 1 1 2 3 2 2 3 3 3 3 2 3 3 5
3 3 3 3 6 6 3 9 5 3 3 6 4 3 2 1 2 5 7 7 7 6 6 6 6 7 6 4 3 1 1 1 1 1 2 1 0 1 2 2 3 3 3 4 3 2 2 2 4
1 1 3 2 3 4 4 7 10 6 4 6 7 6 4 3 3 5 6 7 8 4 4 6 8 7 5 2 2 0 2 1 1 2 3 1 1 0 1 1 2 2 3 2 3 3 4 3 5
5 1 4 4 4 2 5 13 11 7 7 6 7 6 5 3 5 5 7 7 7 7 4 4 6 6 4 3 2 2 1 1 1 0 1 1 1 1 1 1 2 2 2 3 3 3 3 2 4
4 3 4 3 8 2 8 8 6 4 3 3 2 2 1 2 5 6 7 7 7 7 6 3 5 5 3 3 2 2 2 1 2 2 2 2 2 1 1 2 1 2 0 2 1 1 1 2 2
1 3 2 3 6 3 6 8 8 5 7 3 4 4 4 3 2 3 5 6 7 7 6 2 5 6 4 5 3 2 2 0 0 1 1 3 4 4 3 3 2 2 1 3 2 2 2 2 2
2 4 3 3 4 4 6 5 11 5 7 8 9 9 7 6 3 1 4 4 4 6 6 5 6 6 5 4 4 3 2 1 0 1 4 5 5 5 5 4 4 4 2 3 4 3 4 3 2
2 1 6 4 4 4 4 5 10 4 6 6 5 9 9 7 5 2 1 2 2 4 6 6 7 6 6 6 6 5 4 3 3 3 3 4 3 4 5 5 4 4 4 4 4 4 5 5 4
5 7 5 8 6 7 2 2 14 6 7 5 9 8 7 6 6 5 4 0 3 5 5 5 6 6 6 7 7 6 5 5 4 3 2 4 3 3 5 5 5 3 4 5 4 5 5 5 4
4 6 7 6 3 6 3 7 9 4 5 7 8 7 6 6 5 5 4 3 2 3 4 5 5 5 5 6 5 4 5 3 2 2 2 2 1 3 3 5 5 6 5 5 4 3 4 5 5
2 3 3 8 1 5 3 9 12 2 7 5 6 4 6 6 5 6 5 4 3 2 2 3 4 3 4 4 3 4 3 3 2 3 3 2 3 3 4 5 5 6 6 5 5 4 5 4 5
4 2 4 4 2 6 7 7 8 6 7 7 6 7 8 6 7 7 6 6 4 2 1 0 1 1 1 2 2 2 2 2 2 2 3 4 4 4 5 5 5 5 5 5 5 5 5 5 5
3 2 3 3 4 5 4 8 9 8 4 7 9 8 8 8 8 8 7 6 5 3 3 2 2 1 1 1 1 2 2 2 3 3 3 4 4 4 4 5 5 5 6 5 5 5 6 6 6
3 5 5 6 7 4 2 12 1 6 5 4 10 9 8 9 10 6 6 6 5 5 4 5 4 3 3 2 2 3 3 3 4 4 4 3 5 4 4 4 5 6 6 6 6 6 6 6 8
Wind_Direction
332 318 349 35 49 64 278 266 292 125 77 334 43 93 119 65 94 192 325 358 342 352 109 141 141 119 111 105 97 95 94 88 75 65 71 71 70 69 67 63 55 49 50 50 44 40 37 33 35
327 337 39 72 90 62 272 278 211 189 146 146 75 39 51 90 75 89 355 347 340 67 75 92 120 111 104 99 96 93 93 87 81 77 74 74 72 67 63 60 58 50 48 46 45 43 41 36 35
324 10 75 86 107 176 217 266 220 72 140 31 90 49 69 85 275 109 335 2 38 61 75 90 95 96 97 97 100 103 99 97 98 90 82 74 70 66 62 59 52 50 45 43 45 43 40 39 36
12 14 39 96 202 256 207 358 312 98 70 58 127 71 54 360 342 71 89 46 61 57 63 74 96 95 98 101 98 97 96 96 96 93 87 83 73 66 62 61 56 49 46 41 41 39 39 39 38
34 54 80 104 254 273 254 281 161 136 84 45 344 152 87 16 68 86 80 59 71 54 70 72 75 81 90 97 97 98 96 93 92 87 81 76 72 64 60 57 58 53 46 45 43 39 38 34 34
42 90 72 227 233 263 285 334 236 82 72 109 81 105 105 308 129 100 91 72 59 68 59 64 58 68 88 93 97 97 94 94 92 87 80 74 71 65 58 54 49 47 43 44 39 37 35 33 33
105 80 200 167 230 283 19 321 48 100 84 29 132 110 336 216 159 107 91 80 71 61 63 60 64 69 64 68 79 92 91 84 84 83 79 74 68 61 52 44 45 40 40 40 38 32 35 32 31
103 90 101 257 212 243 356 20 18 58 110 131 26 170 221 186 158 109 95 84 80 81 69 71 68 70 70 70 74 80 88 87 86 82 76 66 60 56 49 43 44 41 34 31 31 32 32 29 25
115 66 213 214 157 298 351 44 13 286 105 47 31 31 314 125 126 107 93 77 83 80 90 85 85 78 85 78 68 66 78 83 75 71 71 63 57 48 39 41 40 39 31 29 27 28 27 26 20
78 98 228 263 347 335 335 38 329 15 28 8 26 46 73 123 141 149 152 149 133 130 88 75 93 95 84 92 76 70 70 56 71 72 74 65 60 51 54 41 39 32 30 25 26 26 25 19 9
114 153 222 355 12 351 330 3 328 36 325 277 233 164 137 140 150 159 174 177 179 163 173 141 125 92 86 90 77 66 69 72 60 62 61 61 64 51 46 39 28 19 20 15 16 12 13 8 3
79 25 18 16 11 11 1 317 345 38 248 295 262 154 146 168 181 182 189 191 176 178 194 184 149 123 86 87 80 77 73 65 56 54 58 59 47 43 41 41 25 26 10 9 9 3 353 360 357
74 33 38 24 31 359 337 329 289 288 6 32 116 136 158 173 195 207 207 200 177 199 200 202 167 161 130 110 98 85 76 73 71 59 53 77 68 57 44 36 34 22 4 11 1 358 355 349 348
31 66 46 26 26 9 17 302 4 9 10 81 129 160 172 188 197 198 192 220 211 211 213 194 194 184 157 154 150 134 113 99 76 68 64 70 79 64 45 29 25 23 10 350 0 351 346 339 345
79 31 1 22 345 10 340 296 273 324 34 110 168 202 221 230 248 249 280 242 225 228 202 199 194 182 175 166 153 138 138 122 123 113 53 66 72 63 53 32 17 6 358 357 357 349 340 353 346
40 41 20 347 1 9 62 276 291 340 262 199 224 289 48 60 58 17 343 315 243 214 209 187 181 176 173 161 149 145 144 146 160 121 49 51 69 75 56 34 17 359 4 4 357 353 343 353 353
15 254 320 321 64 327 57 278 294 351 291 221 182 107 113 83 13 354 335 321 307 239 204 197 185 177 163 140 135 149 160 169 169 117 47 334 67 78 70 35 10 11 10 10 359 335 3 338 344
309 360 310 278 341 359 300 268 283 315 272 226 215 200 186 287 328 331 337 331 316 280 204 180 163 157 151 132 123 117 163 206 188 203 225 260 171 66 65 25 11 17 12 5 1 344 330 325 329
281 299 298 316 31 339 268 280 273 270 255 234 227 224 230 282 330 351 348 346 344 331 205 180 158 163 142 124 129 42 239 233 266 240 245 249 227 11 40 2 358 16 23 352 351 340 2 340 339
38 360 307 288 22 352 356 281 256 236 236 209 216 231 257 307 341 352 356 360 356 328 281 187 170 162 161 127 151 142 157 214 230 299 318 269 277 289 276 285 319 350 347 353 3 27 344 334 15
46 14 352 289 329 73 329 290 305 267 246 226 220 216 284 322 339 344 352 354 351 356 334 221 170 155 132 134 101 70 60 38 27 20 20 23 358 304 269 271 265 298 318 308 320 334 35 342 332
9 346 318 344 37 270 20 282 298 331 298 275 246 247 255 274 336 355 351 354 354 344 344 97 127 134 138 146 131 123 131 140 323 11 348 357 19 6 345 313 296 282 261 265 257 202 202 155 262
241 32 38 67 83 40 352 66 274 358 311 265 232 229 230 233 227 1 355 352 352 359 15 47 80 77 84 98 110 113 111 119 335 10 4 2 356 0 358 356 332 307 282 264 247 244 215 200 201
1 44 35 56 92 22 232 112 284 252 220 275 249 215 212 210 200 184 220 15 18 24 42 54 72 62 61 70 63 79 84 53 36 17 9 355 349 352 4 358 351 321 294 273 258 245 230 226 222
54 48 339 354 9 221 344 38 243 258 243 250 285 247 214 206 203 212 203 134 39 44 45 70 74 62 56 64 59 56 60 65 69 48 26 3 354 354 343 351 346 328 308 293 270 248 238 225 219
37 126 150 233 261 275 356 243 252 222 327 287 284 265 192 217 230 234 213 185 130 81 59 64 76 82 70 72 66 56 48 46 48 28 9 350 324 312 313 333 330 326 322 313 293 260 253 224 231
278 38 144 98 99 36 267 294 298 319 304 300 289 263 235 243 241 237 221 206 191 167 129 119 109 96 78 83 81 70 63 47 18 353 342 327 319 315 327 326 322 319 318 316 311 283 274 243 240
137 157 31 5 336 307 293 275 242 326 310 314 288 251 257 260 251 245 235 217 213 196 189 330 61 121 124 103 70 50 12 360 341 333 330 325 316 319 321 319 313 308 306 310 310 298 287 272 261
18 341 41 117 137 179 284 257 213 220 231 298 291 269 257 260 253 239 233 234 230 241 243 262 260 269 311 1 352 345 318 311 304 301 303 305 301 308 313 311 304 301 302 297 290 282 282 274 272
220 217 162 121 270 226 173 272 77 240 233 229 290 282 259 239 245 240 236 227 235 235 237 249 256 252 243 247 246 271 295 313 315 307 300 297 304 306 297 299 299 299 297 293 287 287 282 271 275